• In Belarus
  • List of Countries
  • For 7 days
  • Water Temperature
  • Satellite Maps
  • Weather Map
  • Weather Widgets
  • user-avatar
    Login

    Hourly Weather Kadanovo

    Today, 22 April, Sunday

    Time Temperature Precipitation Wind Pressure Humidity
    00:00 0°C° 0.4 mm 9 mps 730 mmHg 82%
    01:00 -1°C° 0.1 mm 8 mps 731 mmHg 82%
    02:00 -1°C° 0.1 mm 8 mps 732 mmHg 81%
    03:00 0°C° 0 mm 5 mps 733 mmHg 81%
    04:00 -2°C° 0.1 mm 6 mps 734 mmHg 81%
    05:00 -2°C° 0.1 mm 6 mps 734 mmHg 80%
    06:00 -2°C° 0.1 mm 7 mps 735 mmHg 80%
    07:00 -2°C° 0 mm 6 mps 736 mmHg 78%
    08:00 -2°C° 0 mm 6 mps 736 mmHg 77%
    09:00 -1°C° 0 mm 6 mps 737 mmHg 74%
    10:00 -1°C° 0.1 mm 6 mps 737 mmHg 71%
    11:00 -1°C° 0.1 mm 6 mps 738 mmHg 69%
    12:00 -1°C° 0.1 mm 6 mps 738 mmHg 66%
    13:00 +1°C° 0.1 mm 6 mps 739 mmHg 65%
    14:00 +1°C° 0.1 mm 6 mps 740 mmHg 64%
    15:00 +1°C° 0.1 mm 6 mps 740 mmHg 62%
    16:00 -1°C° 0 mm 6 mps 741 mmHg 62%
    17:00 -1°C° 0 mm 6 mps 741 mmHg 62%
    18:00 0°C° 0 mm 5 mps 742 mmHg 61%
    19:00 -1°C° 0 mm 5 mps 743 mmHg 65%
    20:00 -1°C° 0 mm 4 mps 743 mmHg 68%
    21:00 -2°C° 0 mm 4 mps 744 mmHg 72%
    22:00 -2°C° 0 mm 3 mps 744 mmHg 74%
    23:00 -2°C° 0 mm 3 mps 745 mmHg 75%

    Tomorrow, 23 April, Monday

    Time Temperature Precipitation Wind Pressure Humidity
    00:00 -4°C° 0 mm 3 mps 745 mmHg 77%
    01:00 -4°C° 0 mm 3 mps 746 mmHg 78%
    02:00 -4°C° 0 mm 4 mps 746 mmHg 79%
    03:00 -4°C° 0 mm 4 mps 746 mmHg 80%
    04:00 -4°C° 0 mm 4 mps 747 mmHg 79%
    05:00 -4°C° 0 mm 4 mps 747 mmHg 77%
    06:00 -4°C° 0 mm 4 mps 748 mmHg 76%
    07:00 -3°C° 0 mm 4 mps 748 mmHg 68%
    08:00 -2°C° 0 mm 5 mps 748 mmHg 61%
    09:00 -1°C° 0 mm 5 mps 748 mmHg 53%
    10:00 0°C° 0 mm 5 mps 748 mmHg 50%
    11:00 +1°C° 0 mm 5 mps 749 mmHg 48%
    12:00 +2°C° 0 mm 5 mps 749 mmHg 45%
    13:00 +2°C° 0 mm 5 mps 749 mmHg 45%
    14:00 +3°C° 0 mm 5 mps 749 mmHg 45%
    15:00 +3°C° 0 mm 5 mps 749 mmHg 44%
    16:00 +4°C° 0 mm 4 mps 749 mmHg 46%
    17:00 +4°C° 0 mm 4 mps 749 mmHg 48%
    18:00 +3°C° 0 mm 4 mps 749 mmHg 50%
    19:00 +2°C° 0 mm 3 mps 749 mmHg 57%
    20:00 +1°C° 0 mm 2 mps 749 mmHg 64%
    21:00 +1°C° 0 mm 1 mps 750 mmHg 71%
    22:00 0°C° 0 mm 1 mps 750 mmHg 72%
    23:00 0°C° 0 mm 1 mps 750 mmHg 74%

    Day after tomorrow, 24 April, Tuesday

    Time Temperature Precipitation Wind Pressure Humidity
    00:00 -1°C° 0 mm 1 mps 750 mmHg 76%
    01:00 -1°C° 0 mm 1 mps 750 mmHg 76%
    02:00 -1°C° 0 mm 1 mps 750 mmHg 77%
    03:00 -2°C° 0 mm 0 mps 750 mmHg 77%
    04:00 -1°C° 0 mm 1 mps 750 mmHg 75%
    05:00 -1°C° 0 mm 1 mps 750 mmHg 73%
    06:00 0°C° 0 mm 1 mps 750 mmHg 71%
    07:00 +1°C° 0 mm 1 mps 750 mmHg 64%
    08:00 +3°C° 0 mm 1 mps 750 mmHg 56%
    09:00 +5°C° 0 mm 1 mps 750 mmHg 49%
    10:00 +5°C° 0 mm 2 mps 750 mmHg 46%
    11:00 +6°C° 0 mm 2 mps 749 mmHg 43%
    12:00 +8°C° 0 mm 2 mps 749 mmHg 40%
    13:00 +8°C° 0 mm 2 mps 749 mmHg 39%
    14:00 +9°C° 0 mm 2 mps 748 mmHg 39%
    15:00 +9°C° 0 mm 2 mps 748 mmHg 39%
    16:00 +9°C° 0 mm 2 mps 747 mmHg 42%
    17:00 +9°C° 0 mm 2 mps 747 mmHg 46%
    18:00 +9°C° 0 mm 2 mps 747 mmHg 49%
    19:00 +7°C° 0 mm 2 mps 746 mmHg 55%
    20:00 +5°C° 0 mm 2 mps 746 mmHg 62%
    21:00 +2°C° 0 mm 3 mps 746 mmHg 68%
    22:00 +2°C° 0 mm 3 mps 746 mmHg 69%
    23:00 +2°C° 0 mm 3 mps 746 mmHg 70%

    25 April, Wednesday

    Time Temperature Precipitation Wind Pressure Humidity
    00:00 +2°C° 0 mm 3 mps 746 mmHg 70%
    01:00 +2°C° 0 mm 3 mps 745 mmHg 72%
    02:00 +1°C° 0 mm 3 mps 745 mmHg 73%
    03:00 +1°C° 0 mm 3 mps 745 mmHg 74%
    04:00 +2°C° 0.1 mm 3 mps 744 mmHg 75%
    05:00 +1°C° 0.1 mm 4 mps 744 mmHg 77%
    06:00 +1°C° 0.1 mm 4 mps 743 mmHg 78%
    07:00 +3°C° 0.1 mm 4 mps 743 mmHg 80%
    08:00 +4°C° 0.1 mm 4 mps 743 mmHg 81%
    09:00 +4°C° 0.1 mm 4 mps 743 mmHg 83%
    10:00 +6°C° 0.1 mm 4 mps 743 mmHg 81%
    11:00 +7°C° 0.1 mm 4 mps 742 mmHg 80%
    12:00 +8°C° 0.1 mm 4 mps 742 mmHg 79%
    13:00 +8°C° 0.2 mm 4 mps 742 mmHg 79%
    14:00 +10°C° 0.2 mm 4 mps 742 mmHg 79%
    15:00 +10°C° 0.2 mm 4 mps 741 mmHg 79%
    16:00 +10°C° 0.2 mm 4 mps 741 mmHg 80%
    17:00 +10°C° 0.2 mm 4 mps 740 mmHg 81%
    18:00 +8°C° 0.2 mm 4 mps 740 mmHg 83%
    19:00 +9°C° 0.3 mm 3 mps 739 mmHg 87%
    20:00 +8°C° 0.3 mm 3 mps 739 mmHg 91%
    21:00 +7°C° 0.3 mm 3 mps 739 mmHg 95%
    22:00 +7°C° 0.4 mm 3 mps 738 mmHg 95%
    23:00 +7°C° 0.4 mm 3 mps 738 mmHg 94%

    26 April, Thursday

    Time Temperature Precipitation Wind Pressure Humidity
    00:00 +6°C° 0.4 mm 4 mps 738 mmHg 94%
    01:00 +5°C° 0 mm 4 mps 738 mmHg 93%
    02:00 +5°C° 0 mm 4 mps 738 mmHg 92%
    03:00 +4°C° 0 mm 4 mps 738 mmHg 90%
    04:00 +3°C° 0 mm 5 mps 738 mmHg 90%
    05:00 +3°C° 0 mm 5 mps 739 mmHg 90%
    06:00 +2°C° 0 mm 5 mps 739 mmHg 89%
    07:00 +3°C° 0 mm 5 mps 739 mmHg 87%
    08:00 +5°C° 0 mm 5 mps 739 mmHg 85%
    09:00 +5°C° 0 mm 5 mps 739 mmHg 82%
    10:00 +6°C° 0.1 mm 5 mps 740 mmHg 77%
    11:00 +7°C° 0.1 mm 5 mps 740 mmHg 72%
    12:00 +9°C° 0.1 mm 5 mps 740 mmHg 66%
    13:00 +9°C° 0.1 mm 5 mps 740 mmHg 64%
    14:00 +10°C° 0.1 mm 5 mps 741 mmHg 62%
    15:00 +10°C° 0.1 mm 6 mps 741 mmHg 59%
    16:00 +10°C° 0.1 mm 5 mps 741 mmHg 60%
    17:00 +11°C° 0.1 mm 4 mps 742 mmHg 61%
    18:00 +10°C° 0.1 mm 4 mps 742 mmHg 62%
    19:00 +9°C° 0 mm 3 mps 742 mmHg 67%
    20:00 +8°C° 0 mm 3 mps 743 mmHg 73%
    21:00 +6°C° 0 mm 2 mps 743 mmHg 79%
    22:00 +6°C° 0 mm 2 mps 744 mmHg 81%
    23:00 +5°C° 0 mm 2 mps 744 mmHg 83%

    27 April, Friday

    Time Temperature Precipitation Wind Pressure Humidity
    00:00 +4°C° 0 mm 3 mps 744 mmHg 85%
    01:00 +4°C° 0 mm 3 mps 744 mmHg 86%
    02:00 +4°C° 0 mm 3 mps 744 mmHg 87%
    03:00 +3°C° 0 mm 3 mps 744 mmHg 89%
    04:00 +3°C° 0 mm 3 mps 744 mmHg 88%
    05:00 +3°C° 0 mm 3 mps 744 mmHg 88%
    06:00 +3°C° 0 mm 3 mps 744 mmHg 88%
    07:00 +5°C° 0.2 mm 3 mps 744 mmHg 85%
    08:00 +7°C° 0.2 mm 3 mps 744 mmHg 83%
    09:00 +7°C° 0.2 mm 4 mps 744 mmHg 80%
    10:00 +8°C° 0.3 mm 4 mps 744 mmHg 80%
    11:00 +8°C° 0.3 mm 4 mps 744 mmHg 80%
    12:00 +10°C° 0.3 mm 4 mps 744 mmHg 80%
    13:00 +10°C° 0.1 mm 4 mps 744 mmHg 78%
    14:00 +11°C° 0.1 mm 4 mps 744 mmHg 76%
    15:00 +11°C° 0.1 mm 3 mps 744 mmHg 75%
    16:00 +11°C° 0.2 mm 3 mps 744 mmHg 76%
    17:00 +11°C° 0.2 mm 3 mps 744 mmHg 77%
    18:00 +11°C° 0.2 mm 3 mps 743 mmHg 78%
    19:00 +10°C° 0.7 mm 3 mps 743 mmHg 82%
    20:00 +9°C° 0.7 mm 2 mps 743 mmHg 86%
    21:00 +8°C° 0.7 mm 2 mps 743 mmHg 90%
    22:00 +8°C° 0.2 mm 2 mps 744 mmHg 91%
    23:00 +7°C° 0.2 mm 2 mps 744 mmHg 91%
    Show more